Location: Chimay
(50.0486°N, 4.3171°E)
Time: 16:33:34
(UTC+00:00)

USA 234 - Pass Details

Date: 08 August 2020
Orbit: 1100 x 1108 km, 123.0° (Epoch: 17 September)

Event Time Altitude Azimuth Distance (km) Brightness Sun altitude
Exits shadow 20:18:43 11° 118° (ESE) 2,871 4.8 -9.7°
Maximum altitude 20:25:03 88° 30° (NNE) 1,110 3.3 -10.5°
Drops below altitude 10° 20:31:38 10° 302° (WNW) 2,971 7.0 -11.2°
Sets 20:34:07 0° 303° (WNW) 3,932 8.1 -11.5°
